Rutland, VT

12:34 AM EDT on July 26, 2017 (GMT -0400)
Rutland State

Weather History for KRUT - April, 2014

Change the Weather History Date:

Wednesday, April 16, 2014

  Actual Average Record
Temperature  
Mean Temperature 27 °F -  
Max Temperature 32 °F - 88 °F (2012)
Min Temperature 21 °F - 19 °F (1992)
Degree Days  
Heating Degree Days 38    
Month to date heating degree days 344  
Since 1 July heating degree days 7321  
Cooling Degree Days 0    
Month to date cooling degree days 0  
Year to date cooling degree days 0  
Moisture  
Dew Point 17 °F    
Average Humidity 68    
Maximum Humidity 92    
Minimum Humidity 43    
Precipitation  
Precipitation 0.00 in - 0.41 in (1967)
Month to date precipitation 1.06  
Year to date precipitation 6.11  
Sea Level Pressure  
Sea Level Pressure 30.28 in    
Wind  
Wind Speed 9 mph (NNW)    
Max Wind Speed 15 mph    
Max Gust Speed 25 mph    
Visibility 9 miles    
Events      
T = Trace of Precipitation, MM = Missing Value Source: NWS Daily Summary

Daily Weather History Graph

Daily Weather History Graph

Search for Another Location

Airport or City:

Trip Planner

Search our weather history database for the weather conditions in past years. The results will help you decide how hot, cold, wet, or windy it might be!

Date:

Astronomy

Apr. 16, 2014 Rise Set
Actual Time 6:07 AM EDT 7:36 PM EDT
Civil Twilight 5:37 AM EDT 8:06 PM EDT
Nautical Twilight 5:01 AM EDT 8:42 PM EDT
Astronomical Twilight 4:23 AM EDT 9:21 PM EDT
Moon 9:19 PM EDT (4/16) 6:51 AM EDT (4/16)
Length of Visible Light 14h 28m
Length of Day
13h 28m
Full, 98% of the Moon is Illuminated
Apr 16
Full
Apr 22
Last Quarter
Apr 29
New
May 6
First Quarter
May 14
Full

Hourly Weather History & Observations

Time (EDT) Temp. Windchill Dew Point Humidity Pressure Visibility Wind Dir Wind Speed Gust Speed Precip Events Conditions
12:15 AM 30.2 °F 20.2 °F 28.4 °F 93% 29.85 in 3.0 mi West 12.7 mph 16.1 mph N/A   Overcast
12:35 AM 30.2 °F 20.2 °F 26.6 °F 86% 29.86 in 3.0 mi WNW 12.7 mph 19.6 mph N/A   Overcast
12:55 AM 30.2 °F 22.6 °F 28.4 °F 93% 29.87 in 1.8 mi WNW 8.1 mph - N/A   Overcast
1:15 AM 28.4 °F 20.4 °F 24.8 °F 86% 29.87 in 7.0 mi WNW 8.1 mph 19.6 mph N/A   Overcast
1:35 AM 28.4 °F 18.0 °F 26.6 °F 93% 29.88 in 10.0 mi WNW 12.7 mph 21.9 mph N/A   Overcast
1:55 AM 28.4 °F 19.1 °F 26.6 °F 93% 29.88 in 10.0 mi NNW 10.4 mph 16.1 mph N/A   Overcast
2:15 AM 28.4 °F 18.5 °F 26.6 °F 93% 29.90 in 2.0 mi NNW 11.5 mph 18.4 mph N/A   Overcast
2:35 AM 26.6 °F 14.3 °F 24.8 °F 93% 29.94 in 1.2 mi WNW 16.1 mph 21.9 mph N/A   Overcast
2:55 AM 26.6 °F 15.7 °F 21.2 °F 80% 29.95 in 4.0 mi WNW 12.7 mph 17.3 mph N/A   Overcast
3:15 AM 24.8 °F 14.6 °F 19.4 °F 80% 29.96 in 10.0 mi WNW 10.4 mph 19.6 mph N/A   Overcast
3:35 AM 24.8 °F 14.0 °F 19.4 °F 80% 29.95 in 10.0 mi NW 11.5 mph 23.0 mph N/A   Overcast
3:55 AM 24.8 °F 12.4 °F 15.8 °F 69% 29.98 in 10.0 mi NW 15.0 mph 25.3 mph N/A   Overcast
4:15 AM 24.8 °F 14.6 °F 17.6 °F 74% 29.97 in 10.0 mi NNW 10.4 mph 16.1 mph N/A   Overcast
4:35 AM 23.0 °F 13.1 °F 17.6 °F 80% 29.98 in 10.0 mi NNW 9.2 mph 17.3 mph N/A   Overcast
4:55 AM 21.2 °F 9.5 °F 19.4 °F 93% 30.04 in 10.0 mi NW 11.5 mph 18.4 mph N/A   Mostly Cloudy
5:15 AM 21.2 °F 10.1 °F 15.8 °F 80% 30.09 in 10.0 mi NW 10.4 mph - N/A   Partly Cloudy
5:35 AM 21.2 °F 11.7 °F 15.8 °F 80% 30.07 in 10.0 mi NNW 8.1 mph 17.3 mph N/A   Clear
5:55 AM 21.2 °F 9.5 °F 15.8 °F 80% 30.08 in 10.0 mi NNW 11.5 mph 19.6 mph N/A   Partly Cloudy
6:15 AM 21.2 °F 10.1 °F 15.8 °F 80% 30.09 in 10.0 mi NNW 10.4 mph - N/A   Scattered Clouds
6:35 AM 21.2 °F 13.6 °F 17.6 °F 86% 30.11 in 10.0 mi NW 5.8 mph - N/A   Overcast
6:55 AM 21.2 °F 10.9 °F 17.6 °F 86% 30.14 in 10.0 mi NW 9.2 mph - N/A   Overcast
7:15 AM 21.2 °F 11.7 °F 15.8 °F 80% 30.16 in 10.0 mi NW 8.1 mph - N/A   Overcast
7:35 AM 21.2 °F 11.7 °F 15.8 °F 80% 30.18 in 10.0 mi NNW 8.1 mph - N/A   Overcast
7:55 AM 21.2 °F 10.1 °F 15.8 °F 80% 30.19 in 10.0 mi NW 10.4 mph - N/A   Overcast
8:15 AM 23.0 °F 11.7 °F 15.8 °F 74% 30.21 in 10.0 mi North 11.5 mph 16.1 mph N/A   Mostly Cloudy
8:35 AM 23.0 °F 12.4 °F 15.8 °F 74% 30.23 in 10.0 mi North 10.4 mph - N/A   Overcast
8:55 AM 23.0 °F 13.9 °F 15.8 °F 74% 30.24 in 10.0 mi NNW 8.1 mph - N/A   Overcast
9:15 AM 23.0 °F 11.1 °F 14.0 °F 68% 30.26 in 10.0 mi NNW 12.7 mph 20.7 mph N/A   Overcast
9:35 AM 23.0 °F 12.4 °F 12.2 °F 63% 30.27 in 10.0 mi NNW 10.4 mph - N/A   Mostly Cloudy
9:55 AM 24.8 °F 12.9 °F 14.0 °F 64% 30.28 in 10.0 mi North 13.8 mph 20.7 mph N/A   Mostly Cloudy
10:15 AM 23.0 °F 13.1 °F 14.0 °F 68% 30.30 in 10.0 mi North 9.2 mph - N/A   Mostly Cloudy
10:35 AM 24.8 °F 13.4 °F 15.8 °F 69% 30.31 in 10.0 mi North 12.7 mph 19.6 mph N/A   Mostly Cloudy
10:55 AM 24.8 °F 13.4 °F 14.0 °F 64% 30.32 in 10.0 mi North 12.7 mph 21.9 mph N/A   Scattered Clouds
11:15 AM 24.8 °F 12.4 °F 12.2 °F 59% 30.33 in 10.0 mi North 15.0 mph 18.4 mph N/A   Mostly Cloudy
11:35 AM 26.6 °F 14.7 °F 14.0 °F 59% 30.35 in 10.0 mi North 15.0 mph - N/A   Scattered Clouds
11:55 AM 24.8 °F 15.3 °F 12.2 °F 59% 30.37 in 10.0 mi NNW 9.2 mph - N/A   Mostly Cloudy
12:15 PM 26.6 °F 15.7 °F 12.2 °F 55% 30.37 in 10.0 mi North 12.7 mph 16.1 mph N/A   Overcast
12:35 PM 26.6 °F 16.2 °F 14.0 °F 59% 30.38 in 10.0 mi North 11.5 mph 18.4 mph N/A   Overcast
12:55 PM 26.6 °F 16.8 °F 17.6 °F 69% 30.39 in 10.0 mi North 10.4 mph 17.3 mph N/A   Overcast
1:15 PM 28.4 °F 18.0 °F 19.4 °F 69% 30.40 in 10.0 mi North 12.7 mph 20.7 mph N/A   Mostly Cloudy
1:35 PM 28.4 °F - 15.8 °F 59% - 10.0 mi North - - N/A   Mostly Cloudy
1:55 PM 28.4 °F 18.0 °F 17.6 °F 64% 30.41 in 10.0 mi NNW 12.7 mph 16.1 mph N/A   Scattered Clouds
2:15 PM 30.2 °F 21.9 °F 17.6 °F 60% 30.41 in 10.0 mi NNW 9.2 mph 17.3 mph N/A   Scattered Clouds
2:35 PM 30.2 °F 21.3 °F 19.4 °F 64% 30.41 in 10.0 mi NNW 10.4 mph 17.3 mph N/A   Scattered Clouds
2:55 PM 30.2 °F 22.6 °F 17.6 °F 60% 30.42 in 10.0 mi NW 8.1 mph 19.6 mph N/A   Scattered Clouds
3:15 PM 30.2 °F 20.2 °F 17.6 °F 60% 30.42 in 10.0 mi NNW 12.7 mph 17.3 mph N/A   Partly Cloudy
3:35 PM 30.2 °F 21.3 °F 14.0 °F 51% 30.43 in 10.0 mi NNW 10.4 mph - N/A   Clear
3:55 PM 32.0 °F 24.2 °F 15.8 °F 51% 30.44 in 10.0 mi NNW 9.2 mph - N/A   Partly Cloudy
4:15 PM 32.0 °F 23.0 °F 15.8 °F 51% 30.44 in 10.0 mi North 11.5 mph 16.1 mph N/A   Scattered Clouds
4:35 PM 32.0 °F 24.8 °F 15.8 °F 51% 30.45 in 10.0 mi North 8.1 mph - N/A   Mostly Cloudy
4:55 PM 32.0 °F 24.2 °F 15.8 °F 51% 30.45 in 10.0 mi North 9.2 mph - N/A   Partly Cloudy
5:15 PM 32.0 °F 25.6 °F 15.8 °F 51% 30.45 in 10.0 mi NNW 6.9 mph - N/A   Clear
5:35 PM 32.0 °F 25.6 °F 12.2 °F 44% 30.46 in 10.0 mi North 6.9 mph - N/A   Clear
5:55 PM 32.0 °F 25.6 °F 12.2 °F 44% 30.46 in 10.0 mi North 6.9 mph - N/A   Clear
6:15 PM 32.0 °F 24.8 °F 14.0 °F 48% 30.46 in 10.0 mi North 8.1 mph - N/A   Clear
6:35 PM 32.0 °F 26.4 °F 12.2 °F 44% 30.48 in 10.0 mi North 5.8 mph - N/A   Clear
6:55 PM 30.2 °F 26.7 °F 14.0 °F 51% 30.49 in 10.0 mi NNW 3.5 mph - N/A   Clear
7:15 PM 30.2 °F 24.3 °F 12.2 °F 47% 30.50 in 10.0 mi North 5.8 mph - N/A   Clear
7:55 PM 30.2 °F 26.7 °F 14.0 °F 51% 30.52 in 10.0 mi North 3.5 mph - N/A   Clear
8:15 PM 30.2 °F - 12.2 °F 47% 30.53 in 10.0 mi Calm Calm - N/A   Clear
8:35 PM 28.4 °F 24.6 °F 14.0 °F 55% 30.54 in 10.0 mi NNW 3.5 mph - N/A   Clear
8:55 PM 28.4 °F 23.3 °F 15.8 °F 59% 30.54 in 10.0 mi NNW 4.6 mph - N/A   Clear
9:15 PM 26.6 °F 19.1 °F 15.8 °F 64% 30.55 in 10.0 mi NNE 6.9 mph - N/A   Clear
9:35 PM 26.6 °F - 17.6 °F 69% 30.56 in 10.0 mi Calm Calm - N/A   Clear
9:55 PM 28.4 °F - 15.8 °F 59% 30.56 in 10.0 mi Calm Calm - N/A   Clear
10:15 PM 28.4 °F - 15.8 °F 59% 30.57 in 10.0 mi Calm Calm - N/A   Clear
10:35 PM 26.6 °F 22.6 °F 19.4 °F 74% 30.57 in 10.0 mi ESE 3.5 mph - N/A   Clear
10:55 PM 26.6 °F 21.2 °F 17.6 °F 69% 30.57 in 10.0 mi ESE 4.6 mph - N/A   Clear
11:15 PM 24.8 °F 16.9 °F 19.4 °F 80% 30.57 in 10.0 mi SE 6.9 mph - N/A   Clear
11:35 PM 24.8 °F 20.5 °F 17.6 °F 74% 30.59 in 10.0 mi SE 3.5 mph - N/A   Clear
11:55 PM 24.8 °F 16.1 °F 19.4 °F 80% 30.60 in 10.0 mi ESE 8.1 mph - N/A   Clear